User: anonymous   Login
Location: Caltech
(34.1382°N, 118.1253°W)
Time: 03:16:01
(UTC-07:00)
Language:

Cosmos 1833 Rocket - Orbit

View from above orbital plane
View from above orbital plane
View from above satellite
View from above satellite

Ground track
Ground track

The orbit data is extracted from the following two-line orbital elements,

1 17590U 87027B   15148.51309459  .00000123  00000-0  85446-4 0  9998
2 17590 071.0032 290.6454 0005168 344.1724 015.9237 14.16694423457803
Epoch (UTC): 28 May 2015 12:18:51
Eccentricity: 0.0005168
inclination: 71.0032°
perigee height: 833 km
apogee height: 840 km
right ascension of ascending node: 290.6454°
argument of perigee: 344.1724°
revolutions per day: 14.16694423
mean anomaly at epoch: 15.9237°
orbit number at epoch: 45780

The dashed part of the orbit path shows where the satellite is in the earth's shadow,  

DLR